This is the latest recevied weather packets stored in our database for station/object N5CSU. If no packets are shown the sender has not sent any weather packets the latest 10 day(s).
| Time | Temp. | Humidity | Pressure | Rain* | Wind** | Luminosity | Snow |
|---|---|---|---|---|---|---|---|
| 1777647624 | 14.44° C | 77% | 1017.5 hPa | 0 mm | - | 9 W/m² | - |
| 1777647321 | 14.44° C | 79% | 1017.4 hPa | 0 mm | - | 7 W/m² | - |
| 1777646715 | 14.44° C | 81% | 1017.8 hPa | 0 mm | - | 4 W/m² | - |
| 1777646410 | 14.44° C | 82% | 1017.8 hPa | 0 mm | - | 4 W/m² | - |
| 1777646106 | 14.44° C | 81% | 1017.7 hPa | 0 mm | - | 4 W/m² | - |
| 1777645802 | 14.44° C | 81% | 1017.4 hPa | 0 mm | - | 6 W/m² | - |
| 1777645501 | 14.44° C | 83% | 1017.6 hPa | 0 mm | - | 6 W/m² | - |
| 1777645195 | 14.44° C | 84% | 1017.5 hPa | 0 mm | - | 6 W/m² | - |
| 1777644892 | 14.44° C | 84% | 1017.3 hPa | 0 mm | - | 4 W/m² | - |
| 1777644590 | 14.44° C | 83% | 1017.3 hPa | 0 mm | - | 5 W/m² | - |
| 1777644286 | 14.44° C | 85% | 1017.3 hPa | 0 mm | - | 4 W/m² | - |
| 1777643982 | 14.44° C | 86% | 1017.2 hPa | 0 mm | - | 3 W/m² | - |
| 1777643680 | 14.44° C | 86% | 1017 hPa | 0 mm | - | 3 W/m² | - |
| 1777643377 | 14.44° C | 85% | 1016.8 hPa | 0 mm | - | 3 W/m² | - |
| 1777642771 | 14.44° C | 84% | 1017 hPa | 0 mm | - | 6 W/m² | - |
| 1777642467 | 14.44° C | 84% | 1017 hPa | 0 mm | - | 7 W/m² | - |
| 1777642163 | 14.44° C | 85% | 1017.2 hPa | 0 mm | - | 3 W/m² | - |
| 1777641861 | 14.44° C | 85% | 1017.2 hPa | 0 mm | - | 3 W/m² | - |
| 1777641560 | 14.44° C | 85% | 1017.3 hPa | 0 mm | - | 3 W/m² | - |
| 1777640048 | 14.44° C | 84% | 1017.4 hPa | 0 mm | - | 1 W/m² | - |
| 1777638835 | 14.44° C | 87% | 1017 hPa | 0 mm | - | 1 W/m² | - |
| 1777638530 | 13.89° C | 88% | 1016.9 hPa | 0 mm | - | 1 W/m² | - |
| 1777638227 | 13.89° C | 88% | 1016.7 hPa | 0 mm | - | 1 W/m² | - |
| 1777637923 | 13.89° C | 88% | 1016 hPa | 0 mm | - | 1 W/m² | - |
| 1777637317 | 13.89° C | 89% | 1015.6 hPa | 0 mm | - | 1 W/m² | - |
* Rain latest hour (hover to see other rain measurements)
** Current wind speed in m/s (hover to see current wind gust speed)